Simultaneous Nadir Overpasses (SNOs) Predictions

Prediction of SNOs between LANDSAT-8 and NPP Satellite Orbit:

Table of predicted SNOs for the next 14.0 days since TLE Epoch: 10/8/2016
Index Date (LANDSAT-8) Time (LANDSAT-8) Lat,Lon (LANDSAT-8) SZA (LANDSAT-8 ) Date (NPP) Time (NPP) Lat,Lon (NPP) SZA (NPP ) Distance(km) Time Diff (sec)
1 10/10/2016 06:09:01 -70.93, -94.55 102.35 10/10/2016 06:07:53 -71.02, -96.84 102.26 83.53 68
2 10/10/2016 06:58:41 70.12, 71.88 76.85 10/10/2016 06:58:22 70.10, 71.93 76.83 3.31 19
3 10/10/2016 07:48:11 -70.01,-120.64 103.26 10/10/2016 07:49:04 -70.02,-120.63 103.24 1.54 53
4 10/12/2016 22:25:44 -70.22, 20.26 102.06 10/12/2016 22:24:34 -70.23, 20.19 102.05 2.92 70
5 10/12/2016 23:15:11 70.12,-172.24 77.85 10/12/2016 23:15:18 70.10,-172.31 77.83 3.21 7
6 10/13/2016 00:04:44 -69.85, -4.99 102.41 10/13/2016 00:05:56 -69.81, -4.56 102.45 17.25 72
7 10/15/2016 14:42:15 -70.16, 136.05 101.13 10/15/2016 14:41:29 -70.18, 136.02 101.11 2.06 46
8 10/15/2016 15:31:42 70.05, -56.46 78.78 10/15/2016 15:32:13 70.05, -56.48 78.78 0.71 31
9 10/18/2016 06:09:03 70.86, 85.33 80.54 10/18/2016 06:07:55 70.95, 83.22 80.64 77.26 68
10 10/18/2016 06:58:44 -70.15,-108.09 100.16 10/18/2016 06:58:23 -70.13,-108.14 100.18 2.82 21
11 10/18/2016 07:48:12 69.98, 59.32 79.69 10/18/2016 07:49:07 70.01, 59.35 79.72 3.28 55
12 10/20/2016 22:25:45 70.18,-159.81 80.82 10/20/2016 22:24:36 70.18,-159.77 80.82 1.41 69
13 10/20/2016 23:15:15 -70.08, 7.68
